Location: Unspecified
(49.9820°N, 20.4363°E)
Time: 05:06:54
(UTC+02:00)

Vanguard 3 - Pass Details

Date: 18 May 2026
Orbit: 507 x 3204 km, 33.3° (Epoch: 6 June)

Event Time Altitude Azimuth Distance (km) Brightness Sun altitude
Rises 16:54:31 0° 263° (W) 7,020 13.1 30.9°
Reaches altitude 10° 16:59:32 10° 257° (WSW) 6,102 13.2 30.1°
Maximum altitude 17:16:39 41° 197° (SSW) 3,854 11.1 27.4°
Drops below altitude 10° 17:30:19 10° 135° (SE) 4,914 10.8 25.2°
Sets 17:33:51 0° 128° (SE) 5,590 11.0 24.6°
